This is the latest recevied weather packets stored in our database for station/object DB0MW-13. If no packets are shown the sender has not sent any weather packets the latest 10 day(s).
| Time | Temp. | Humidity | Pressure | Rain* | Wind** | Luminosity | Snow |
|---|---|---|---|---|---|---|---|
| 1777794901 | 16.11° C | 65% | 1016.1 hPa | 0 mm | - | - | - |
| 1777794601 | 16.11° C | 65% | 1016.2 hPa | 0 mm | - | - | - |
| 1777794300 | 16.11° C | 65% | 1016.1 hPa | 0 mm | - | - | - |
| 1777794000 | 16.11° C | 68% | 1016.2 hPa | 0 mm | - | - | - |
| 1777793700 | 15.56° C | 68% | 1016.3 hPa | 0 mm | - | - | - |
| 1777793400 | 15.56° C | 69% | 1016 hPa | 0 mm | - | - | - |
| 1777793100 | 15.56° C | 68% | 1016.1 hPa | 0 mm | - | - | - |
| 1777792800 | 15.56° C | 68% | 1016.1 hPa | 0 mm | - | - | - |
| 1777792500 | 15.56° C | 68% | 1016.4 hPa | 0 mm | - | - | - |
| 1777792200 | 15° C | 67% | 1016.5 hPa | 0 mm | - | - | - |
| 1777791900 | 15° C | 65% | 1016.6 hPa | 0 mm | - | - | - |
| 1777791600 | 15° C | 64% | 1016.7 hPa | 0 mm | - | - | - |
| 1777791300 | 15° C | 63% | 1016.4 hPa | 0 mm | - | - | - |
| 1777791000 | 14.44° C | 64% | 1016.6 hPa | 0 mm | - | - | - |
| 1777790701 | 14.44° C | 66% | 1016.5 hPa | 0 mm | - | - | - |
| 1777790401 | 14.44° C | 67% | 1016.5 hPa | 0 mm | - | - | - |
| 1777790101 | 13.89° C | 68% | 1016.4 hPa | 0 mm | - | - | - |
| 1777789801 | 13.89° C | 69% | 1016.3 hPa | 0 mm | - | - | - |
| 1777789501 | 13.33° C | 69% | 1016.3 hPa | 0 mm | - | - | - |
| 1777789201 | 13.33° C | 71% | 1016.3 hPa | 0 mm | - | - | - |
| 1777788901 | 13.33° C | 73% | 1016.3 hPa | 0 mm | - | - | - |
| 1777788601 | 12.78° C | 77% | 1016.2 hPa | 0 mm | - | - | - |
| 1777788300 | 12.78° C | 77% | 1016 hPa | 0 mm | - | - | - |
| 1777788000 | 12.78° C | 77% | 1016 hPa | 0 mm | - | - | - |
| 1777787700 | 12.22° C | 78% | 1015.8 hPa | 0 mm | - | - | - |
* Rain latest hour (hover to see other rain measurements)
** Current wind speed in m/s (hover to see current wind gust speed)